This demonstration page uses our WeatherBlox Daily Observations layout. Learn more.

Left ArrowRight Arrow

Hourly Observations for October 5, 2015

Temp ( °F °C ) Dew Point ( °F °C ) Humidity (%) Winds ( mph kmh ) Pressure ( in mb ) Visibility ( mi km ) Precip ( " mm )
12:15 am 00:15 Cloudy 54 12 50 10 88 88 N 6 9 30.21 1023 10 16 N/A
12:35 am 00:35 Cloudy 54 12 50 10 88 88 N 7 11 30.21 1023 10 16 N/A
12:55 am 00:55 Cloudy 54 12 50 10 88 88 NNE 5 7 30.21 1023 10 16 N/A
1:15 am 01:15 Cloudy 54 12 50 10 88 88 NNE 5 7 30.21 1023 10 16 N/A
1:35 am 01:35 Cloudy 54 12 50 10 88 88 N 8 13 30.21 1023 10 16 N/A
1:55 am 01:55 Mostly Cloudy 54 12 50 10 88 88 N 8 13 30.21 1023 10 16 N/A
2:15 am 02:15 Partly Cloudy 54 12 50 10 88 88 N 8 13 30.21 1023 10 16 N/A
2:35 am 02:35 Clear 54 12 50 10 88 88 NNE 7 11 30.21 1023 10 16 N/A
2:55 am 02:55 Clear 54 12 50 10 88 88 NNE 8 13 30.18 1022 10 16 N/A
3:15 am 03:15 Clear 54 12 50 10 88 88 N 8 13 30.21 1023 10 16 N/A
3:35 am 03:35 Clear 54 12 50 10 88 88 N 8 13 30.21 1023 10 16 N/A
3:55 am 03:55 Clear 54 12 50 10 88 88 N 7 11 30.21 1023 10 16 N/A
4:15 am 04:15 Clear 52 11 50 10 94 94 N 7 11 30.21 1023 10 16 N/A
4:35 am 04:35 Clear 52 11 50 10 94 94 NNE 7 11 30.21 1023 10 16 N/A
4:55 am 04:55 Partly Cloudy 52 11 50 10 94 94 N 6 9 30.24 1024 10 16 N/A
5:15 am 05:15 Partly Cloudy 52 11 50 10 94 94 N 6 9 30.24 1024 10 16 N/A
5:35 am 05:35 Partly Cloudy 52 11 50 10 94 94 N 7 11 30.24 1024 10 16 N/A
5:55 am 05:55 Clear 52 11 50 10 94 94 N 7 11 30.24 1024 10 16 N/A
6:15 am 06:15 Clear 50 10 50 10 100 100 N 6 9 30.24 1024 10 16 N/A
6:35 am 06:35 Clear 52 11 50 10 94 94 N 6 9 30.21 1023 10 16 N/A
6:55 am 06:55 Clear 50 10 50 10 100 100 N 5 7 30.24 1024 10 16 N/A
7:15 am 07:15 Sunny 50 10 48 9 94 94 N 6 9 30.24 1024 10 16 N/A
7:35 am 07:35 Sunny 52 11 50 10 94 94 N 9 15 30.24 1024 10 16 N/A
7:55 am 07:55 Sunny 52 11 50 10 94 94 N 8 13 30.24 1024 10 16 N/A
8:15 am 08:15 Sunny 52 11 50 10 94 94 NNE 12 19 30.24 1024 10 16 N/A
8:35 am 08:35 Sunny 52 11 50 10 94 94 N 7 11 30.24 1024 10 16 N/A
8:55 am 08:55 Sunny 52 11 50 10 94 94 NNE 7 11 30.24 1024 10 16 N/A
9:15 am 09:15 Sunny 54 12 50 10 88 88 NNE 13 20 30.21 1023 10 16 N/A
9:35 am 09:35 Sunny 55 13 50 10 82 82 NNE 9 15 30.21 1023 10 16 N/A
9:55 am 09:55 Sunny 55 13 50 10 82 82 NNE 6 9 30.21 1023 10 16 N/A
10:15 am 10:15 Sunny 57 14 50 10 77 77 N 8 13 30.21 1023 10 16 N/A
10:35 am 10:35 Sunny 59 15 50 10 72 72 NNE 6 9 30.21 1023 10 16 N/A
10:55 am 10:55 Mostly Cloudy 59 15 52 11 77 77 NE 7 11 30.21 1023 10 16 N/A
11:15 am 11:15 Mostly Cloudy 59 15 52 11 77 77 NNE 6 9 30.21 1023 10 16 N/A
11:35 am 11:35 Cloudy 61 16 52 11 72 72 NNE 7 11 30.21 1023 10 16 N/A
11:55 am 11:55 Mostly Cloudy 61 16 52 11 72 72 NNE 8 13 30.21 1023 10 16 N/A
12:15 pm 12:15 Partly Cloudy 63 17 52 11 68 68 N 6 9 30.18 1022 10 16 N/A
12:35 pm 12:35 Partly Cloudy 63 17 52 11 68 68 NNE 8 13 30.18 1022 10 16 N/A
12:55 pm 12:55 Partly Cloudy 63 17 52 11 68 68 ENE 6 9 30.18 1022 10 16 N/A
1:15 pm 13:15 Partly Cloudy 63 17 52 11 68 68 N 9 15 30.18 1022 10 16 N/A
1:35 pm 13:35 Partly Cloudy 64 18 52 11 64 64 N 9 15 30.15 1021 10 16 N/A
1:55 pm 13:55 Partly Cloudy 64 18 52 11 64 64 N 7 11 30.15 1021 10 16 N/A
2:15 pm 14:15 Partly Cloudy 64 18 52 11 64 64 N 3 6 30.15 1021 10 16 N/A
2:35 pm 14:35 Partly Cloudy 64 18 52 11 64 64 N N/A 30.15 1021 10 16 N/A
2:55 pm 14:55 Partly Cloudy 66 19 52 11 60 60 NNE 8 13 30.12 1020 10 16 N/A
3:15 pm 15:15 Partly Cloudy 64 18 52 11 64 64 N 9 15 30.12 1020 10 16 N/A
3:35 pm 15:35 Sunny 68 20 52 11 56 56 N 7 11 30.12 1020 10 16 N/A
3:55 pm 15:55 Sunny 66 19 52 11 60 60 N 6 9 30.12 1020 10 16 N/A
4:15 pm 16:15 Sunny 66 19 52 11 60 60 N 7 11 30.12 1020 10 16 N/A
4:35 pm 16:35 Sunny 66 19 52 11 60 60 N 6 9 30.12 1020 10 16 N/A
4:55 pm 16:55 Sunny 66 19 52 11 60 60 NNE 8 13 30.12 1020 10 16 N/A
5:15 pm 17:15 Sunny 66 19 52 11 60 60 NNE 5 7 30.12 1020 10 16 N/A
5:35 pm 17:35 Sunny 66 19 50 10 56 56 N 7 11 30.12 1020 10 16 N/A
5:55 pm 17:55 Sunny 64 18 50 10 60 60 N 5 7 30.12 1020 10 16 N/A
6:15 pm 18:15 Sunny 64 18 50 10 60 60 N N/A 30.09 1019 10 16 N/A
6:35 pm 18:35 Sunny 63 17 50 10 64 64 NNE 3 6 30.12 1020 10 16 N/A
6:55 pm 18:55 Clear 63 17 50 10 64 64 NNE 3 6 30.12 1020 10 16 N/A
7:15 pm 19:15 Clear 61 16 50 10 68 68 NNE 5 7 30.12 1020 10 16 N/A
7:35 pm 19:35 Clear 61 16 50 10 68 68 NNE 3 6 30.12 1020 10 16 N/A
7:55 pm 19:55 Clear 59 15 52 11 77 77 N N/A 30.12 1020 10 16 N/A
8:15 pm 20:15 Clear 57 14 52 11 82 82 N N/A 30.12 1020 10 16 N/A
8:35 pm 20:35 Clear 55 13 52 11 88 88 NNW 5 7 30.12 1020 10 16 N/A
8:55 pm 20:55 Clear 55 13 52 11 88 88 N 3 6 30.12 1020 10 16 N/A
9:15 pm 21:15 Clear 55 13 52 11 88 88 NNW 3 6 30.12 1020 10 16 N/A
9:35 pm 21:35 Clear 55 13 52 11 88 88 N 3 6 30.12 1020 10 16 N/A
9:55 pm 21:55 Clear 54 12 52 11 94 94 N 5 7 30.12 1020 10 16 N/A
10:15 pm 22:15 Clear 54 12 50 10 88 88 N N/A 30.12 1020 10 16 N/A
10:35 pm 22:35 Clear 52 11 50 10 94 94 NNW 3 6 30.12 1020 10 16 N/A
10:55 pm 22:55 Clear 52 11 50 10 94 94 N N/A 30.12 1020 10 16 N/A
11:15 pm 23:15 Clear 50 10 50 10 100 100 N N/A 30.15 1021 10 16 N/A
11:35 pm 23:35 Clear 50 10 50 10 100 100 N N/A 30.15 1021 10 16 N/A
11:55 pm 23:55 Clear 50 10 50 10 100 100 N N/A 30.15 1021 10 16 N/A

Powered by AerisWeather